QPF
0.00 0.01 0.01 0.00 0.01 0.01 0.01 0.01 0.01 0.00 0.01 0.01 0.01 0.02 0.02 0.03 0.02 0.02 0.03 0.06 0.10 0.09 0.07 0.06 0.06 0.06 0.07 0.08 0.08 0.08 0.08 0.08 0.08 0.07 0.07 0.06 0.04 0.03 0.03 0.02 0.02 0.02 0.03
0.00 0.01 0.01 0.00 0.01 0.01 0.01 0.01 0.01 0.01 0.01 0.01 0.01 0.02 0.02 0.03 0.03 0.02 0.04 0.08 0.11 0.10 0.08 0.06 0.06 0.06 0.06 0.07 0.09 0.10 0.09 0.09 0.09 0.09 0.09 0.08 0.06 0.04 0.03 0.03 0.02 0.02 0.03
0.00 0.00 0.00 0.00 0.00 0.00 0.00 0.00 0.00 0.01 0.02 0.02 0.02 0.03 0.04 0.05 0.05 0.05 0.05 0.07 0.07 0.06 0.05 0.04 0.04 0.05 0.05 0.07 0.11 0.10 0.06 0.07 0.07 0.08 0.09 0.09 0.08 0.06 0.05 0.04 0.02 0.02 0.02
0.00 0.00 0.00 0.00 0.00 0.00 0.00 0.00 0.00 0.01 0.02 0.02 0.04 0.06 0.06 0.06 0.06 0.05 0.05 0.07 0.06 0.04 0.03 0.04 0.04 0.05 0.05 0.07 0.07 0.06 0.05 0.05 0.05 0.06 0.06 0.06 0.07 0.07 0.06 0.04 0.03 0.02 0.01
0.00 0.00 0.00 0.00 0.00 0.00 0.00 0.00 0.00 0.01 0.02 0.04 0.05 0.05 0.04 0.04 0.03 0.03 0.03 0.03 0.03 0.02 0.02 0.03 0.03 0.04 0.04 0.06 0.07 0.07 0.06 0.04 0.04 0.04 0.05 0.05 0.06 0.05 0.05 0.05 0.04 0.02 0.01
0.00 0.00 0.00 0.00 0.00 0.00 0.00 0.00 0.01 0.01 0.03 0.04 0.04 0.03 0.02 0.02 0.02 0.02 0.02 0.02 0.01 0.02 0.02 0.02 0.03 0.03 0.04 0.05 0.07 0.07 0.06 0.05 0.04 0.04 0.05 0.04 0.04 0.04 0.04 0.04 0.04 0.04 0.03
0.00 0.00 0.00 0.00 0.00 0.00 0.00 0.00 0.01 0.01 0.02 0.02 0.01 0.01 0.02 0.02 0.03 0.02 0.02 0.02 0.02 0.02 0.03 0.03 0.03 0.03 0.04 0.05 0.07 0.07 0.06 0.05 0.04 0.05 0.05 0.04 0.04 0.04 0.03 0.03 0.03 0.03 0.02
0.01 0.01 0.00 0.00 0.00 0.00 0.01 0.01 0.01 0.01 0.01 0.02 0.04 0.04 0.03 0.02 0.03 0.03 0.03 0.03 0.03 0.04 0.04 0.04 0.04 0.04 0.04 0.04 0.05 0.05 0.04 0.04 0.03 0.04 0.04 0.04 0.03 0.03 0.03 0.03 0.03 0.03 0.02
0.01 0.01 0.00 0.01 0.01 0.01 0.01 0.02 0.02 0.02 0.01 0.02 0.03 0.03 0.02 0.01 0.01 0.02 0.02 0.02 0.02 0.03 0.04 0.04 0.04 0.04 0.04 0.04 0.04 0.03 0.03 0.03 0.03 0.03 0.03 0.03 0.03 0.03 0.03 0.03 0.03 0.03 0.02
0.01 0.01 0.00 0.00 0.00 0.01 0.01 0.01 0.01 0.02 0.02 0.01 0.02 0.03 0.02 0.02 0.01 0.01 0.01 0.02 0.02 0.03 0.04 0.04 0.04 0.04 0.03 0.03 0.03 0.02 0.03 0.03 0.02 0.02 0.02 0.03 0.03 0.04 0.03 0.03 0.04 0.04 0.04
0.01 0.00 0.00 0.00 0.00 0.01 0.01 0.01 0.01 0.01 0.01 0.01 0.02 0.02 0.02 0.01 0.02 0.01 0.02 0.02 0.02 0.03 0.04 0.04 0.04 0.04 0.04 0.03 0.03 0.03 0.03 0.02 0.02 0.02 0.03 0.03 0.03 0.03 0.03 0.04 0.04 0.04 0.04
0.01 0.01 0.01 0.01 0.01 0.01 0.01 0.01 0.01 0.01 0.01 0.01 0.01 0.01 0.01 0.01 0.02 0.01 0.02 0.02 0.02 0.02 0.03 0.03 0.03 0.03 0.03 0.04 0.04 0.04 0.03 0.04 0.04 0.05 0.05 0.04 0.04 0.04 0.04 0.04 0.04 0.04 0.04
0.00 0.00 0.00 0.01 0.00 0.00 0.00 0.01 0.01 0.01 0.01 0.01 0.02 0.02 0.02 0.02 0.02 0.02 0.02 0.02 0.02 0.02 0.02 0.01 0.02 0.02 0.03 0.04 0.04 0.04 0.04 0.04 0.05 0.06 0.05 0.04 0.03 0.03 0.03 0.04 0.04 0.04 0.03
0.00 0.00 0.00 0.00 0.00 0.00 0.00 0.00 0.01 0.01 0.01 0.01 0.02 0.04 0.04 0.03 0.04 0.03 0.03 0.02 0.01 0.01 0.02 0.02 0.02 0.02 0.02 0.03 0.03 0.03 0.03 0.03 0.03 0.03 0.02 0.01 0.01 0.01 0.02 0.03 0.03 0.03 0.03
0.00 0.00 0.01 0.01 0.00 0.01 0.01 0.01 0.01 0.01 0.01 0.01 0.01 0.01 0.02 0.02 0.03 0.02 0.02 0.02 0.01 0.01 0.01 0.01 0.01 0.01 0.01 0.01 0.01 0.01 0.01 0.02 0.02 0.01 0.01 0.01 0.01 0.01 0.01 0.02 0.03 0.03 0.03
0.00 0.00 0.01 0.01 0.00 0.01 0.01 0.01 0.01 0.00 0.00 0.01 0.01 0.01 0.01 0.01 0.01 0.01 0.01 0.01 0.01 0.01 0.01 0.02 0.02 0.02 0.01 0.01 0.01 0.02 0.02 0.02 0.02 0.02 0.01 0.01 0.01 0.01 0.01 0.01 0.01 0.02 0.02
0.00 0.00 0.00 0.00 0.01 0.01 0.01 0.01 0.02 0.01 0.00 0.01 0.02 0.02 0.01 0.01 0.01 0.02 0.02 0.02 0.02 0.02 0.02 0.02 0.01 0.01 0.00 0.01 0.01 0.02 0.02 0.01 0.02 0.02 0.03 0.02 0.01 0.01 0.01 0.01 0.01 0.02 0.02
0.01 0.01 0.01 0.01 0.01 0.01 0.01 0.01 0.02 0.02 0.01 0.01 0.02 0.02 0.02 0.01 0.01 0.02 0.01 0.01 0.01 0.01 0.01 0.01 0.01 0.01 0.01 0.00 0.01 0.02 0.03 0.02 0.02 0.02 0.03 0.03 0.02 0.03 0.03 0.03 0.02 0.02 0.02
0.01 0.01 0.01 0.01 0.01 0.01 0.01 0.01 0.01 0.02 0.02 0.02 0.03 0.02 0.02 0.02 0.02 0.02 0.01 0.01 0.01 0.01 0.01 0.02 0.01 0.01 0.01 0.01 0.02 0.02 0.04 0.04 0.04 0.04 0.04 0.05 0.04 0.05 0.05 0.05 0.03 0.02 0.02
0.01 0.01 0.01 0.01 0.01 0.01 0.01 0.01 0.01 0.01 0.02 0.02 0.02 0.02 0.02 0.02 0.02 0.01 0.01 0.01 0.01 0.01 0.01 0.01 0.01 0.01 0.01 0.01 0.01 0.01 0.02 0.02 0.02 0.02 0.02 0.03 0.03 0.03 0.04 0.03 0.03 0.02 0.01
0.01 0.02 0.02 0.01 0.02 0.02 0.02 0.03 0.02 0.02 0.01 0.02 0.02 0.02 0.02 0.02 0.02 0.02 0.02 0.01 0.01 0.01 0.01 0.02 0.02 0.01 0.01 0.01 0.01 0.01 0.01 0.01 0.01 0.01 0.01 0.02 0.02 0.02 0.02 0.03 0.02 0.02 0.02
0.02 0.02 0.02 0.02 0.02 0.02 0.03 0.04 0.05 0.04 0.02 0.01 0.01 0.01 0.02 0.02 0.01 0.02 0.02 0.02 0.02 0.02 0.02 0.03 0.02 0.01 0.00 0.01 0.01 0.01 0.01 0.01 0.01 0.01 0.02 0.02 0.03 0.03 0.03 0.03 0.03 0.04 0.04
0.02 0.03 0.03 0.02 0.02 0.02 0.02 0.03 0.05 0.05 0.04 0.04 0.04 0.03 0.02 0.01 0.01 0.01 0.03 0.03 0.03 0.03 0.03 0.02 0.02 0.01 0.01 0.01 0.01 0.01 0.02 0.02 0.02 0.02 0.02 0.03 0.03 0.03 0.03 0.03 0.04 0.04 0.04
0.02 0.02 0.02 0.03 0.02 0.02 0.02 0.03 0.04 0.03 0.03 0.04 0.05 0.04 0.03 0.02 0.02 0.02 0.03 0.03 0.03 0.02 0.02 0.01 0.01 0.01 0.01 0.01 0.02 0.02 0.01 0.01 0.01 0.02 0.02 0.03 0.04 0.05 0.05 0.05 0.04 0.03 0.03
0.01 0.02 0.03 0.03 0.03 0.04 0.04 0.04 0.04 0.03 0.01 0.01 0.01 0.02 0.02 0.02 0.02 0.02 0.02 0.02 0.01 0.01 0.01 0.01 0.01 0.01 0.01 0.01 0.02 0.02 0.02 0.02 0.02 0.02 0.02 0.04 0.06 0.05 0.04 0.03 0.03 0.03 0.03
0.01 0.02 0.03 0.03 0.03 0.03 0.05 0.05 0.04 0.03 0.02 0.01 0.01 0.01 0.02 0.02 0.02 0.02 0.02 0.02 0.02 0.02 0.02 0.01 0.01 0.01 0.01 0.01 0.01 0.02 0.03 0.03 0.03 0.02 0.02 0.04 0.04 0.04 0.03 0.03 0.03 0.04 0.04
MSLP
1010.48 1010.76 1011.08 1011.42 1011.76 1012.09 1012.40 1012.69 1012.95 1013.18 1013.39 1013.58 1013.73 1013.85 1013.95 1014.00 1014.03 1014.02 1013.99 1013.93 1013.85 1013.77 1013.68 1013.61 1013.56 1013.54 1013.55 1013.61 1013.69 1013.80 1013.92 1014.04 1014.15 1014.24 1014.30 1014.34 1014.34 1014.32 1014.28 1014.22 1014.16 1014.09 1014.03
1010.50 1010.76 1011.06 1011.38 1011.70 1012.01 1012.31 1012.60 1012.88 1013.16 1013.42 1013.67 1013.89 1014.08 1014.22 1014.30 1014.33 1014.31 1014.24 1014.14 1014.02 1013.88 1013.76 1013.65 1013.57 1013.53 1013.52 1013.54 1013.59 1013.66 1013.76 1013.86 1013.98 1014.09 1014.20 1014.31 1014.40 1014.47 1014.51 1014.52 1014.51 1014.46 1014.39
1010.77 1011.01 1011.28 1011.57 1011.86 1012.14 1012.41 1012.68 1012.96 1013.25 1013.54 1013.83 1014.10 1014.34 1014.52 1014.63 1014.68 1014.65 1014.57 1014.44 1014.29 1014.13 1013.98 1013.86 1013.77 1013.71 1013.68 1013.68 1013.70 1013.74 1013.79 1013.87 1013.98 1014.10 1014.24 1014.40 1014.57 1014.73 1014.86 1014.96 1015.01 1015.01 1014.97
1011.26 1011.50 1011.76 1012.03 1012.28 1012.51 1012.74 1012.97 1013.22 1013.49 1013.78 1014.09 1014.39 1014.66 1014.88 1015.02 1015.08 1015.07 1014.98 1014.86 1014.70 1014.54 1014.40 1014.28 1014.19 1014.13 1014.09 1014.07 1014.06 1014.07 1014.09 1014.13 1014.20 1014.32 1014.47 1014.66 1014.88 1015.11 1015.32 1015.50 1015.62 1015.68 1015.67
1011.91 1012.17 1012.44 1012.69 1012.91 1013.10 1013.28 1013.45 1013.65 1013.88 1014.15 1014.45 1014.75 1015.04 1015.28 1015.46 1015.55 1015.56 1015.50 1015.39 1015.25 1015.11 1014.98 1014.88 1014.81 1014.76 1014.72 1014.70 1014.67 1014.64 1014.62 1014.62 1014.65 1014.74 1014.88 1015.07 1015.31 1015.58 1015.84 1016.07 1016.25 1016.36 1016.40
1012.65 1012.94 1013.23 1013.49 1013.69 1013.85 1013.97 1014.08 1014.21 1014.38 1014.60 1014.87 1015.16 1015.45 1015.71 1015.91 1016.04 1016.08 1016.06 1015.98 1015.88 1015.77 1015.68 1015.61 1015.56 1015.53 1015.50 1015.47 1015.43 1015.38 1015.32 1015.28 1015.27 1015.31 1015.41 1015.58 1015.81 1016.08 1016.36 1016.62 1016.83 1016.98 1017.05
1013.37 1013.72 1014.05 1014.33 1014.53 1014.65 1014.72 1014.77 1014.83 1014.93 1015.09 1015.31 1015.57 1015.85 1016.12 1016.34 1016.51 1016.60 1016.62 1016.59 1016.54 1016.47 1016.41 1016.37 1016.35 1016.33 1016.32 1016.29 1016.24 1016.17 1016.08 1016.01 1015.95 1015.95 1016.00 1016.13 1016.31 1016.55 1016.82 1017.07 1017.30 1017.47 1017.56
1014.02 1014.44 1014.82 1015.12 1015.33 1015.44 1015.47 1015.45 1015.44 1015.47 1015.55 1015.71 1015.94 1016.20 1016.47 1016.71 1016.91 1017.05 1017.13 1017.15 1017.14 1017.12 1017.09 1017.08 1017.08 1017.08 1017.07 1017.05 1017.00 1016.92 1016.82 1016.71 1016.62 1016.57 1016.58 1016.65 1016.78 1016.97 1017.19 1017.42 1017.63 1017.79 1017.90
1014.56 1015.04 1015.47 1015.81 1016.03 1016.13 1016.13 1016.07 1015.99 1015.94 1015.96 1016.06 1016.23 1016.47 1016.73 1016.99 1017.23 1017.41 1017.54 1017.61 1017.65 1017.67 1017.67 1017.69 1017.70 1017.71 1017.72 1017.70 1017.65 1017.57 1017.46 1017.34 1017.23 1017.15 1017.10 1017.12 1017.19 1017.32 1017.49 1017.67 1017.84 1017.99 1018.09
1014.97 1015.50 1015.98 1016.36 1016.60 1016.69 1016.67 1016.57 1016.44 1016.34 1016.29 1016.34 1016.47 1016.67 1016.93 1017.20 1017.45 1017.67 1017.85 1017.97 1018.06 1018.11 1018.15 1018.19 1018.22 1018.24 1018.25 1018.24 1018.20 1018.13 1018.03 1017.90 1017.78 1017.67 1017.59 1017.56 1017.58 1017.65 1017.75 1017.88 1018.01 1018.13 1018.21
1015.25 1015.83 1016.34 1016.73 1016.98 1017.09 1017.06 1016.94 1016.78 1016.64 1016.56 1016.56 1016.66 1016.84 1017.08 1017.35 1017.63 1017.88 1018.10 1018.27 1018.40 1018.50 1018.57 1018.63 1018.68 1018.71 1018.74 1018.73 1018.71 1018.64 1018.55 1018.44 1018.31 1018.19 1018.09 1018.03 1018.00 1018.01 1018.06 1018.14 1018.22 1018.30 1018.35
1015.43 1016.01 1016.53 1016.93 1017.19 1017.30 1017.28 1017.17 1017.02 1016.87 1016.78 1016.76 1016.84 1017.00 1017.24 1017.51 1017.81 1018.09 1018.34 1018.56 1018.74 1018.88 1018.99 1019.08 1019.15 1019.21 1019.25 1019.26 1019.24 1019.19 1019.11 1019.01 1018.89 1018.76 1018.65 1018.56 1018.49 1018.46 1018.46 1018.49 1018.53 1018.56 1018.59
1015.50 1016.05 1016.54 1016.93 1017.19 1017.32 1017.33 1017.25 1017.13 1017.02 1016.95 1016.95 1017.03 1017.20 1017.44 1017.72 1018.03 1018.34 1018.63 1018.90 1019.12 1019.31 1019.47 1019.60 1019.70 1019.78 1019.84 1019.86 1019.86 1019.82 1019.75 1019.65 1019.54 1019.41 1019.28 1019.17 1019.08 1019.02 1018.98 1018.96 1018.96 1018.97 1018.97
1015.43 1015.92 1016.37 1016.73 1016.98 1017.14 1017.19 1017.18 1017.13 1017.09 1017.08 1017.13 1017.25 1017.44 1017.70 1018.00 1018.33 1018.66 1018.99 1019.30 1019.57 1019.81 1020.02 1020.19 1020.34 1020.44 1020.52 1020.55 1020.56 1020.53 1020.46 1020.36 1020.24 1020.11 1019.98 1019.86 1019.75 1019.66 1019.59 1019.55 1019.51 1019.49 1019.46
1015.23 1015.63 1016.00 1016.32 1016.57 1016.75 1016.87 1016.95 1017.00 1017.06 1017.15 1017.29 1017.47 1017.71 1018.01 1018.34 1018.69 1019.05 1019.41 1019.76 1020.08 1020.37 1020.62 1020.84 1021.01 1021.15 1021.24 1021.28 1021.29 1021.25 1021.18 1021.08 1020.96 1020.82 1020.68 1020.55 1020.43 1020.33 1020.24 1020.18 1020.12 1020.07 1020.02
1014.90 1015.18 1015.47 1015.74 1015.98 1016.19 1016.39 1016.57 1016.75 1016.95 1017.16 1017.41 1017.68 1018.00 1018.34 1018.70 1019.08 1019.47 1019.86 1020.23 1020.59 1020.91 1021.21 1021.46 1021.66 1021.81 1021.91 1021.96 1021.96 1021.92 1021.84 1021.73 1021.60 1021.46 1021.32 1021.19 1021.07 1020.96 1020.87 1020.79 1020.72 1020.65 1020.58
1014.45 1014.62 1014.81 1015.02 1015.25 1015.51 1015.78 1016.08 1016.40 1016.74 1017.10 1017.47 1017.85 1018.25 1018.65 1019.06 1019.46 1019.87 1020.28 1020.67 1021.05 1021.39 1021.71 1021.98 1022.19 1022.35 1022.45 1022.50 1022.49 1022.43 1022.34 1022.23 1022.10 1021.96 1021.83 1021.70 1021.59 1021.49 1021.40 1021.32 1021.24 1021.15 1021.06
1013.94 1014.00 1014.10 1014.26 1014.48 1014.77 1015.12 1015.53 1015.98 1016.46 1016.96 1017.46 1017.95 1018.43 1018.90 1019.35 1019.78 1020.21 1020.62 1021.02 1021.40 1021.75 1022.07 1022.34 1022.55 1022.71 1022.80 1022.83 1022.82 1022.75 1022.66 1022.54 1022.42 1022.29 1022.18 1022.07 1021.98 1021.89 1021.81 1021.73 1021.64 1021.54 1021.43
1013.45 1013.42 1013.44 1013.56 1013.77 1014.09 1014.50 1015.00 1015.56 1016.17 1016.79 1017.40 1017.99 1018.54 1019.07 1019.55 1020.01 1020.45 1020.86 1021.25 1021.62 1021.97 1022.27 1022.53 1022.73 1022.87 1022.95 1022.97 1022.95 1022.88 1022.79 1022.68 1022.58 1022.48 1022.39 1022.31 1022.24 1022.17 1022.10 1022.03 1021.94 1021.82 1021.69
1013.05 1012.95 1012.92 1013.00 1013.21 1013.54 1014.00 1014.56 1015.21 1015.90 1016.61 1017.30 1017.97 1018.59 1019.16 1019.68 1020.15 1020.59 1021.00 1021.39 1021.74 1022.07 1022.35 1022.59 1022.78 1022.90 1022.97 1022.98 1022.95 1022.89 1022.81 1022.72 1022.64 1022.57 1022.51 1022.46 1022.42 1022.38 1022.32 1022.24 1022.14 1022.02 1021.86
1012.78 1012.65 1012.60 1012.66 1012.86 1013.19 1013.67 1014.27 1014.96 1015.70 1016.46 1017.21 1017.93 1018.59 1019.19 1019.73 1020.22 1020.67 1021.07 1021.45 1021.79 1022.10 1022.38 1022.60 1022.77 1022.88 1022.94 1022.95 1022.93 1022.88 1022.81 1022.75 1022.69 1022.65 1022.62 1022.59 1022.57 1022.54 1022.49 1022.41 1022.30 1022.15 1021.97
1012.66 1012.54 1012.48 1012.54 1012.74 1013.07 1013.55 1014.15 1014.85 1015.60 1016.38 1017.15 1017.88 1018.56 1019.18 1019.74 1020.24 1020.69 1021.10 1021.48 1021.82 1022.13 1022.39 1022.61 1022.77 1022.89 1022.95 1022.97 1022.95 1022.92 1022.87 1022.82 1022.78 1022.75 1022.74 1022.73 1022.71 1022.68 1022.62 1022.53 1022.41 1022.24 1022.05
1012.68 1012.59 1012.56 1012.63 1012.83 1013.16 1013.62 1014.21 1014.88 1015.62 1016.38 1017.13 1017.86 1018.53 1019.15 1019.72 1020.22 1020.69 1021.11 1021.49 1021.84 1022.16 1022.43 1022.66 1022.84 1022.96 1023.04 1023.07 1023.07 1023.05 1023.01 1022.97 1022.93 1022.91 1022.88 1022.86 1022.83 1022.78 1022.71 1022.60 1022.46 1022.29 1022.09
1012.78 1012.74 1012.76 1012.86 1013.07 1013.40 1013.85 1014.40 1015.04 1015.73 1016.45 1017.16 1017.86 1018.51 1019.12 1019.67 1020.18 1020.66 1021.09 1021.49 1021.86 1022.20 1022.50 1022.74 1022.95 1023.10 1023.19 1023.25 1023.26 1023.24 1023.20 1023.16 1023.10 1023.05 1023.00 1022.94 1022.88 1022.80 1022.71 1022.58 1022.44 1022.27 1022.07
1012.90 1012.93 1013.00 1013.15 1013.39 1013.72 1014.15 1014.68 1015.27 1015.91 1016.57 1017.23 1017.88 1018.49 1019.07 1019.61 1020.11 1020.59 1021.03 1021.45 1021.84 1022.20 1022.53 1022.81 1023.04 1023.22 1023.35 1023.42 1023.44 1023.42 1023.38 1023.30 1023.22 1023.12 1023.02 1022.92 1022.81 1022.70 1022.57 1022.43 1022.29 1022.13 1021.96
1012.97 1013.08 1013.22 1013.43 1013.71 1014.06 1014.49 1014.99 1015.54 1016.13 1016.73 1017.33 1017.91 1018.47 1019.01 1019.51 1019.99 1020.45 1020.90 1021.32 1021.73 1022.11 1022.46 1022.78 1023.04 1023.25 1023.40 1023.48 1023.51 1023.49 1023.42 1023.31 1023.18 1023.03 1022.88 1022.72 1022.57 1022.42 1022.27 1022.13 1022.00 1021.87 1021.74
Thickness
5821 5820 5818 5816 5812 5809 5805 5803 5800 5799 5797 5796 5794 5792 5791 5790 5790 5789 5786 5785 5784 5783 5782 5783 5780 5780 5779 5777 5777 5775 5773 5772 5772 5769 5767 5770 5771 5770 5769 5768 5767 5765 5763
5820 5818 5817 5816 5813 5809 5806 5804 5801 5800 5798 5797 5795 5793 5792 5791 5790 5789 5786 5784 5783 5782 5784 5781 5782 5781 5778 5776 5776 5774 5774 5774 5773 5769 5765 5762 5764 5766 5769 5767 5765 5764 5763
5821 5819 5817 5816 5814 5811 5808 5807 5804 5801 5799 5798 5797 5794 5791 5790 5789 5786 5785 5784 5783 5782 5781 5781 5781 5780 5781 5778 5776 5775 5772 5771 5772 5771 5767 5761 5758 5761 5764 5763 5763 5762 5761
5826 5823 5820 5817 5816 5814 5813 5809 5805 5802 5800 5798 5796 5793 5789 5786 5785 5785 5785 5784 5783 5782 5782 5781 5780 5780 5781 5778 5777 5776 5774 5771 5769 5770 5768 5767 5764 5757 5755 5759 5761 5760 5758
5828 5825 5823 5820 5819 5817 5814 5811 5806 5802 5800 5798 5795 5792 5790 5788 5788 5786 5783 5782 5783 5782 5781 5780 5779 5778 5778 5776 5775 5773 5772 5772 5770 5768 5768 5765 5762 5761 5755 5751 5754 5757 5759
5828 5826 5825 5821 5819 5817 5815 5811 5805 5801 5800 5797 5795 5791 5788 5787 5785 5783 5782 5782 5783 5782 5781 5779 5777 5777 5776 5774 5773 5771 5770 5768 5767 5767 5767 5764 5761 5759 5757 5752 5751 5752 5755
5825 5823 5821 5819 5816 5815 5813 5810 5804 5800 5798 5796 5794 5791 5788 5786 5783 5782 5781 5781 5782 5781 5778 5778 5775 5775 5773 5772 5771 5769 5768 5767 5764 5763 5764 5764 5763 5762 5759 5754 5752 5751 5753
5822 5821 5819 5818 5815 5813 5811 5809 5804 5800 5798 5794 5792 5790 5788 5787 5786 5783 5783 5781 5781 5781 5779 5776 5774 5773 5772 5771 5769 5769 5767 5765 5763 5763 5761 5761 5761 5761 5758 5755 5751 5748 5749
5819 5818 5817 5817 5815 5812 5809 5807 5803 5799 5796 5794 5790 5787 5786 5785 5784 5782 5780 5780 5778 5779 5776 5774 5772 5771 5769 5768 5766 5766 5764 5763 5762 5762 5760 5759 5759 5758 5757 5755 5752 5746 5742
5816 5816 5815 5815 5814 5811 5808 5805 5802 5797 5795 5792 5789 5787 5784 5782 5781 5779 5776 5775 5774 5774 5772 5771 5769 5768 5767 5766 5764 5763 5762 5759 5758 5757 5755 5754 5756 5755 5754 5752 5750 5747 5742
5811 5811 5811 5812 5811 5809 5806 5801 5798 5795 5792 5790 5787 5785 5782 5780 5778 5776 5775 5773 5771 5769 5768 5767 5765 5764 5763 5763 5760 5760 5758 5756 5755 5754 5752 5751 5750 5751 5751 5749 5746 5744 5740
5806 5806 5806 5806 5805 5803 5801 5797 5795 5792 5790 5788 5785 5782 5779 5778 5775 5774 5772 5770 5768 5767 5765 5764 5762 5761 5760 5759 5757 5755 5754 5752 5750 5749 5748 5747 5747 5744 5743 5742 5740 5738 5735
5799 5798 5798 5797 5796 5795 5794 5792 5791 5789 5788 5785 5782 5778 5776 5774 5772 5770 5769 5768 5765 5764 5763 5760 5758 5757 5757 5755 5753 5751 5750 5748 5747 5746 5744 5742 5741 5738 5738 5736 5735 5734 5733
5790 5790 5789 5789 5788 5787 5786 5785 5785 5784 5783 5780 5777 5774 5772 5771 5769 5767 5765 5764 5762 5760 5758 5756 5755 5753 5752 5751 5749 5747 5745 5743 5742 5741 5740 5738 5736 5733 5731 5730 5728 5728 5726
5783 5783 5782 5781 5781 5779 5778 5778 5778 5778 5777 5774 5772 5769 5767 5766 5764 5762 5761 5759 5758 5757 5754 5752 5750 5749 5748 5746 5743 5741 5741 5738 5737 5736 5734 5733 5730 5727 5725 5726 5724 5722 5720
5778 5777 5777 5775 5774 5773 5773 5772 5772 5771 5770 5767 5766 5764 5762 5760 5759 5757 5756 5754 5753 5751 5749 5747 5745 5743 5743 5738 5735 5733 5734 5732 5731 5729 5728 5727 5725 5722 5719 5716 5715 5713 5712
5772 5771 5771 5770 5769 5768 5768 5766 5766 5766 5763 5761 5759 5758 5756 5754 5753 5753 5750 5748 5746 5744 5742 5741 5739 5736 5734 5730 5728 5726 5726 5727 5725 5723 5722 5723 5723 5718 5716 5713 5709 5707 5705
5765 5765 5765 5765 5765 5764 5764 5762 5761 5759 5756 5754 5752 5751 5749 5747 5746 5744 5742 5741 5740 5738 5736 5734 5732 5729 5727 5723 5721 5719 5721 5721 5719 5718 5717 5715 5714 5713 5709 5708 5707 5704 5702
5759 5758 5759 5759 5758 5757 5757 5754 5752 5750 5748 5746 5744 5743 5742 5740 5738 5736 5734 5733 5731 5730 5728 5727 5725 5722 5720 5716 5714 5712 5715 5714 5713 5713 5711 5709 5707 5703 5700 5700 5699 5697 5697
5751 5750 5750 5749 5748 5748 5749 5745 5743 5741 5739 5738 5736 5735 5733 5731 5730 5728 5726 5725 5724 5722 5721 5720 5718 5716 5714 5710 5706 5703 5709 5708 5708 5707 5705 5702 5699 5695 5692 5692 5691 5690 5690
5741 5740 5739 5738 5737 5738 5738 5735 5734 5732 5732 5731 5728 5726 5724 5723 5722 5720 5718 5716 5715 5715 5713 5711 5710 5709 5707 5704 5700 5697 5700 5701 5701 5701 5701 5698 5691 5687 5685 5683 5684 5683 5682
5730 5730 5728 5727 5728 5728 5728 5726 5724 5725 5724 5722 5720 5717 5716 5715 5715 5711 5709 5708 5707 5706 5705 5703 5702 5702 5700 5697 5694 5690 5688 5689 5691 5692 5692 5690 5683 5679 5677 5676 5675 5674 5672
5720 5719 5718 5717 5717 5718 5717 5716 5715 5715 5713 5711 5709 5708 5707 5706 5705 5703 5701 5700 5699 5699 5698 5696 5695 5695 5694 5691 5686 5683 5681 5679 5680 5683 5680 5677 5674 5672 5672 5669 5667 5666 5668
5710 5709 5708 5707 5707 5707 5707 5707 5706 5706 5704 5702 5700 5699 5698 5698 5696 5695 5696 5694 5693 5691 5690 5688 5687 5686 5685 5683 5681 5678 5675 5671 5672 5673 5671 5667 5666 5665 5665 5664 5664 5663 5663
5701 5700 5699 5697 5697 5697 5697 5698 5697 5696 5695 5693 5692 5692 5692 5691 5688 5688 5686 5686 5685 5683 5679 5679 5678 5676 5675 5671 5665 5665 5666 5665 5664 5661 5663 5662 5662 5662 5662 5661 5660 5658 5656
5691 5690 5689 5688 5688 5687 5687 5687 5687 5686 5685 5685 5684 5685 5684 5683 5682 5680 5678 5674 5673 5669 5667 5665 5664 5666 5662 5658 5655 5653 5651 5650 5649 5651 5655 5655 5655 5654 5654 5653 5652 5651 5648